This demonstration page uses our WeatherBlox Daily Observations layout. Learn more.

Left ArrowRight Arrow

Hourly Observations for April 19, 2015

Temp ( °F °C ) Dew Point ( °F °C ) Humidity (%) Winds ( mph kmh ) Pressure ( in mb ) Visibility ( mi km ) Precip ( " mm )
12:51 am 00:51 Clear 61 16.1 18 -7.8 19 19 NNW 10 17 29.82 1010 10 16 N/A
1:51 am 01:51 Clear 58 14.4 17 -8.3 20 20 NNW 9 15 29.82 1010 10 16 N/A
2:51 am 02:51 Clear 50 10 16 -8.9 26 26 E 7 11 29.84 1011 10 16 N/A
3:51 am 03:51 Clear 49 9.4 16 -8.9 27 27 E 6 9 29.85 1011 10 16 N/A
4:51 am 04:51 Clear 50 10 16 -8.9 26 26 SE 6 9 29.85 1011 10 16 N/A
5:51 am 05:51 Sunny 52 11.1 17 -8.3 25 25 ESE 3 6 29.86 1011 10 16 N/A
6:51 am 06:51 Sunny 53 11.7 18 -7.8 25 25 SE 5 7 29.89 1012 10 16 N/A
7:51 am 07:51 Sunny 58 14.4 20 -6.7 23 23 S 6 9 29.90 1013 10 16 N/A
8:51 am 08:51 Sunny 66 18.9 20 -6.7 17 17 SSE 5 7 29.89 1012 10 16 N/A
9:51 am 09:51 Sunny 72 22.2 19 -7.2 13 13 WNW 6 9 29.87 1012 10 16 N/A
10:51 am 10:51 Sunny 78 25.6 18 -7.8 10 10 NW 13 20 29.84 1011 10 16 N/A
11:51 am 11:51 Sunny 80 26.7 17 -8.3 9 9 W 8 13 29.81 1010 10 16 N/A
12:51 pm 12:51 Sunny 82 27.8 19 -7.2 9 9 W 10 17 29.78 1008 10 16 N/A
1:51 pm 13:51 Sunny 84 28.9 12 -11.1 6 6 NW 9 15 29.75 1007 10 16 N/A
2:51 pm 14:51 Sunny 84 28.9 16 -8.9 8 8 WNW 15 24 29.73 1007 10 16 N/A
3:51 pm 15:51 Sunny 85 29.4 17 -8.3 8 8 W 17 28 29.70 1006 10 16 N/A
4:51 pm 16:51 Sunny 84 28.9 15 -9.4 7 7 NW 12 19 29.70 1006 10 16 N/A
5:51 pm 17:51 Sunny 82 27.8 15 -9.4 8 8 WNW 17 28 29.71 1006 10 16 N/A
6:51 pm 18:51 Sunny 77 25 20 -6.7 12 12 N 12 19 29.72 1007 10 16 N/A
7:51 pm 19:51 Clear 72 22.2 22 -5.6 15 15 N 6 9 29.75 1007 10 16 N/A
8:51 pm 20:51 Clear 68 20 21 -6.1 17 17 N 3 6 29.76 1008 10 16 N/A
9:51 pm 21:51 Clear 65 18.3 22 -5.6 19 19 NW 6 9 29.78 1008 10 16 N/A
10:51 pm 22:51 Clear 62 16.7 21 -6.1 21 21 NE 6 9 29.78 1008 10 16 N/A
11:51 pm 23:51 Clear 63 17.2 20 -6.7 19 19 W 5 7 29.77 1008 10 16 N/A

Powered by AerisWeather